Tracking 20040 objects as of 19-Nov-2019
Live streaming from Space Station
objects crossing your sky now

INTELSAT 502

Track INTELSAT 502 now!
INTELSAT 502 is classified as:


NORAD ID: 12089
Int'l Code: 1980-098A
Perigee: 36,121.0 km
Apogee: 36,250.4 km
Inclination: 14.4 °
Period: 1,456.2 minutes
Semi major axis: 42556 km
RCS: 13.5237 m2 (large)
Launch date: December 6, 1980
Source: International Telecommunications Satellite Organization (ITSO)
Launch site: AIR FORCE EASTERN TEST RANGE (AFETR)
aabbcc
Your satellite tracking list
Your tracking list is empty




NASA's NSSDC Master Catalog

Two Line Element Set (TLE):
1 12089U 80098A   19321.69424451 +.00000009 +00000-0 +00000-0 0  9995
2 12089 014.4493 345.6576 0015195 280.7946 258.5241 00.98889658109941
Source of the keplerian elements: AFSPC